This is the latest recevied weather packets stored in our database for station/object N4LLZ-13. If no packets are shown the sender has not sent any weather packets the latest 10 day(s).
| Time | Temp. | Humidity | Pressure | Rain* | Wind** | Luminosity | Snow |
|---|---|---|---|---|---|---|---|
| 1788014377 | 25.56° C | 87% | 1021.9 hPa | 0 mm | - | - | - |
| 1788014076 | 25.56° C | 88% | 1021.8 hPa | 0 mm | - | - | - |
| 1788013775 | 25° C | 87% | 1021.7 hPa | 0 mm | - | - | - |
| 1788013475 | 25° C | 88% | 1021.6 hPa | 0 mm | - | - | - |
| 1788013174 | 24.44° C | 88% | 1021.5 hPa | 0 mm | - | - | - |
| 1788012873 | 24.44° C | 90% | 1021.5 hPa | 0 mm | - | - | - |
| 1788012572 | 23.89° C | 92% | 1021.4 hPa | 0 mm | - | - | - |
| 1788012272 | 23.89° C | 93% | 1021.4 hPa | 0 mm | - | - | - |
| 1788011971 | 23.89° C | 93% | 1021.4 hPa | 0 mm | - | - | - |
| 1788011671 | 23.89° C | 92% | 1021.4 hPa | 0 mm | - | - | - |
| 1788011370 | 24.44° C | 91% | 1021.4 hPa | 0 mm | - | - | - |
| 1788011069 | 23.89° C | 92% | 1021.4 hPa | 0 mm | - | - | - |
| 1788010769 | 23.89° C | 92% | 1021.2 hPa | 0 mm | - | - | - |
| 1788010468 | 23.33° C | 93% | 1021.3 hPa | 0 mm | - | - | - |
| 1788010167 | 23.33° C | 94% | 1021.4 hPa | 0 mm | - | - | - |
| 1788009866 | 23.33° C | 94% | 1021.4 hPa | 0 mm | - | - | - |
| 1788009565 | 23.33° C | 94% | 1021.5 hPa | 0 mm | - | - | - |
| 1788009265 | 23.33° C | 93% | 1021.4 hPa | 0 mm | - | - | - |
| 1788008964 | 23.89° C | 93% | 1021.4 hPa | 0 mm | - | - | - |
| 1788008664 | 23.89° C | 92% | 1021.2 hPa | 0 mm | - | - | - |
| 1788008363 | 23.89° C | 92% | 1021.2 hPa | 0 mm | - | - | - |
| 1788008062 | 23.89° C | 92% | 1021.2 hPa | 0 mm | - | - | - |
| 1788007762 | 23.89° C | 92% | 1021.3 hPa | 0 mm | - | - | - |
| 1788007462 | 23.89° C | 92% | 1021.3 hPa | 0 mm | - | - | - |
| 1788007161 | 23.89° C | 92% | 1021.4 hPa | 0 mm | - | - | - |
* Rain latest hour (hover to see other rain measurements)
** Current wind speed in m/s (hover to see current wind gust speed)